QPF
0.02 0.02 0.02 0.03 0.04 0.05 0.06 0.10 0.14 0.24 0.26 0.33 0.37 0.35 0.31 0.26 0.25 0.28 0.28 0.29 0.30 0.29 0.35 0.39 0.38 0.34 0.26 0.23 0.20 0.19 0.19 0.20 0.18 0.15 0.15 0.13 0.11 0.13 0.13 0.14 0.12 0.11 0.10
0.03 0.03 0.03 0.03 0.04 0.04 0.06 0.09 0.13 0.15 0.17 0.20 0.25 0.26 0.28 0.26 0.23 0.22 0.22 0.22 0.24 0.26 0.28 0.34 0.35 0.29 0.24 0.24 0.24 0.21 0.18 0.17 0.16 0.13 0.13 0.11 0.08 0.06 0.08 0.08 0.07 0.07 0.05
0.07 0.06 0.06 0.06 0.06 0.09 0.10 0.08 0.12 0.17 0.16 0.15 0.19 0.20 0.21 0.24 0.22 0.20 0.22 0.20 0.21 0.22 0.20 0.20 0.24 0.23 0.19 0.20 0.21 0.21 0.19 0.18 0.16 0.12 0.12 0.10 0.08 0.06 0.05 0.05 0.06 0.06 0.05
0.06 0.07 0.05 0.05 0.05 0.07 0.10 0.10 0.14 0.16 0.21 0.19 0.16 0.16 0.16 0.19 0.17 0.14 0.15 0.14 0.14 0.16 0.19 0.16 0.17 0.19 0.18 0.17 0.17 0.18 0.18 0.18 0.16 0.11 0.08 0.06 0.06 0.06 0.06 0.05 0.06 0.06 0.05
0.05 0.05 0.04 0.04 0.03 0.04 0.05 0.06 0.10 0.10 0.12 0.17 0.18 0.17 0.17 0.16 0.15 0.12 0.13 0.14 0.10 0.09 0.10 0.12 0.14 0.17 0.18 0.18 0.17 0.17 0.18 0.18 0.15 0.12 0.10 0.08 0.06 0.05 0.04 0.04 0.03 0.03 0.02
0.05 0.04 0.03 0.03 0.03 0.03 0.04 0.04 0.05 0.05 0.06 0.09 0.14 0.16 0.14 0.12 0.12 0.12 0.11 0.13 0.13 0.11 0.11 0.10 0.13 0.16 0.17 0.15 0.14 0.15 0.17 0.17 0.14 0.12 0.10 0.09 0.08 0.06 0.05 0.04 0.03 0.02 0.01
0.10 0.04 0.03 0.03 0.03 0.03 0.04 0.05 0.05 0.04 0.05 0.06 0.08 0.10 0.12 0.11 0.09 0.09 0.09 0.10 0.10 0.10 0.10 0.10 0.10 0.12 0.12 0.12 0.10 0.09 0.10 0.11 0.12 0.11 0.10 0.09 0.07 0.05 0.04 0.03 0.03 0.02 0.01
0.09 0.05 0.04 0.04 0.05 0.04 0.03 0.05 0.06 0.07 0.06 0.05 0.06 0.07 0.09 0.10 0.10 0.07 0.06 0.05 0.05 0.06 0.07 0.07 0.06 0.06 0.06 0.05 0.05 0.05 0.05 0.06 0.06 0.05 0.05 0.05 0.05 0.04 0.03 0.02 0.01 0.01 0.01
0.04 0.02 0.02 0.02 0.02 0.02 0.02 0.03 0.03 0.03 0.03 0.03 0.03 0.03 0.04 0.06 0.07 0.05 0.03 0.03 0.02 0.03 0.04 0.04 0.05 0.05 0.04 0.03 0.02 0.02 0.02 0.02 0.02 0.02 0.02 0.02 0.02 0.02 0.02 0.01 0.01 0.00 0.00
0.02 0.02 0.02 0.02 0.01 0.02 0.02 0.02 0.03 0.02 0.02 0.02 0.02 0.02 0.02 0.02 0.03 0.02 0.02 0.02 0.01 0.01 0.02 0.02 0.02 0.02 0.03 0.02 0.02 0.02 0.01 0.01 0.01 0.01 0.01 0.01 0.01 0.01 0.01 0.00 0.00 0.00 0.00
0.02 0.01 0.01 0.01 0.02 0.03 0.04 0.03 0.03 0.02 0.02 0.02 0.02 0.02 0.02 0.01 0.02 0.02 0.02 0.02 0.01 0.01 0.02 0.02 0.01 0.01 0.01 0.01 0.00 0.01 0.01 0.00 0.00 0.00 0.00 0.00 0.00 0.00 0.00 0.00 0.00 0.00 0.00
0.02 0.02 0.02 0.02 0.02 0.02 0.03 0.04 0.03 0.03 0.03 0.03 0.03 0.03 0.03 0.02 0.02 0.02 0.01 0.01 0.02 0.02 0.02 0.02 0.01 0.01 0.00 0.00 0.00 0.00 0.00 0.00 0.00 0.00 0.00 0.00 0.00 0.00 0.00 0.00 0.00 0.00 0.00
0.01 0.01 0.03 0.02 0.02 0.02 0.02 0.02 0.02 0.03 0.04 0.04 0.04 0.04 0.03 0.03 0.02 0.02 0.01 0.01 0.02 0.02 0.01 0.01 0.00 0.00 0.00 0.00 0.00 0.00 0.00 0.00 0.00 0.00 0.00 0.00 0.00 0.00 0.00 0.00 0.00 0.00 0.00
0.01 0.01 0.01 0.02 0.02 0.02 0.03 0.04 0.04 0.04 0.05 0.05 0.04 0.04 0.04 0.03 0.03 0.03 0.02 0.01 0.01 0.00 0.00 0.00 0.00 0.00 0.00 0.00 0.00 0.00 0.00 0.00 0.00 0.00 0.00 0.00 0.00 0.00 0.00 0.00 0.00 0.00 0.00
0.01 0.01 0.01 0.01 0.02 0.03 0.03 0.04 0.04 0.05 0.05 0.04 0.03 0.03 0.03 0.03 0.03 0.03 0.02 0.01 0.00 0.00 0.00 0.00 0.00 0.00 0.00 0.00 0.00 0.00 0.00 0.00 0.00 0.00 0.00 0.00 0.00 0.00 0.00 0.00 0.00 0.00 0.00
0.01 0.01 0.02 0.02 0.02 0.02 0.02 0.02 0.03 0.04 0.05 0.05 0.04 0.03 0.03 0.02 0.02 0.02 0.02 0.01 0.00 0.00 0.00 0.01 0.01 0.01 0.01 0.01 0.01 0.01 0.01 0.01 0.00 0.00 0.00 0.00 0.00 0.00 0.00 0.00 0.00 0.00 0.00
0.02 0.02 0.02 0.02 0.02 0.02 0.02 0.02 0.03 0.04 0.04 0.05 0.05 0.04 0.03 0.02 0.02 0.01 0.01 0.01 0.00 0.00 0.01 0.01 0.01 0.01 0.01 0.01 0.01 0.00 0.00 0.00 0.00 0.00 0.00 0.00 0.00 0.00 0.00 0.00 0.00 0.00 0.00
0.02 0.02 0.02 0.02 0.02 0.02 0.02 0.02 0.03 0.03 0.03 0.03 0.03 0.03 0.03 0.02 0.01 0.01 0.01 0.01 0.01 0.01 0.01 0.01 0.01 0.01 0.00 0.00 0.00 0.00 0.00 0.00 0.00 0.00 0.00 0.00 0.00 0.00 0.00 0.00 0.00 0.00 0.00
0.02 0.02 0.02 0.02 0.03 0.03 0.03 0.04 0.04 0.03 0.02 0.02 0.02 0.03 0.02 0.01 0.01 0.01 0.00 0.00 0.00 0.00 0.00 0.00 0.00 0.00 0.00 0.00 0.00 0.00 0.00 0.00 0.00 0.00 0.00 0.00 0.00 0.00 0.00 0.00 0.00 0.00 0.00
0.03 0.03 0.03 0.03 0.03 0.04 0.03 0.03 0.03 0.03 0.02 0.02 0.01 0.02 0.01 0.01 0.01 0.00 0.00 0.00 0.00 0.00 0.00 0.00 0.00 0.00 0.00 0.00 0.00 0.00 0.00 0.00 0.00 0.00 0.00 0.00 0.00 0.00 0.00 0.00 0.00 0.00 0.00
0.02 0.03 0.03 0.02 0.03 0.03 0.02 0.03 0.02 0.02 0.02 0.01 0.01 0.01 0.01 0.01 0.01 0.00 0.00 0.00 0.00 0.00 0.01 0.01 0.00 0.00 0.00 0.00 0.00 0.00 0.00 0.00 0.00 0.00 0.00 0.00 0.00 0.00 0.00 0.00 0.00 0.00 0.00
0.02 0.02 0.02 0.02 0.02 0.02 0.02 0.03 0.03 0.02 0.01 0.01 0.00 0.01 0.01 0.01 0.00 0.00 0.01 0.01 0.01 0.01 0.01 0.01 0.00 0.00 0.00 0.00 0.00 0.00 0.00 0.00 0.00 0.00 0.00 0.00 0.00 0.00 0.00 0.00 0.00 0.00 0.00
0.02 0.02 0.01 0.02 0.02 0.02 0.02 0.02 0.02 0.02 0.02 0.01 0.01 0.01 0.01 0.01 0.01 0.00 0.00 0.00 0.00 0.01 0.01 0.00 0.00 0.00 0.00 0.00 0.00 0.00 0.00 0.00 0.00 0.00 0.00 0.00 0.00 0.00 0.00 0.00 0.00 0.00 0.00
0.02 0.02 0.02 0.02 0.02 0.02 0.02 0.02 0.02 0.02 0.03 0.02 0.01 0.00 0.00 0.00 0.01 0.00 0.00 0.00 0.00 0.00 0.00 0.01 0.00 0.00 0.00 0.00 0.00 0.00 0.00 0.00 0.00 0.00 0.00 0.00 0.00 0.00 0.00 0.00 0.00 0.00 0.00
0.02 0.02 0.03 0.03 0.02 0.02 0.02 0.02 0.02 0.02 0.01 0.01 0.00 0.00 0.00 0.00 0.01 0.00 0.00 0.00 0.00 0.00 0.00 0.00 0.00 0.00 0.00 0.00 0.00 0.00 0.00 0.00 0.00 0.00 0.00 0.00 0.00 0.00 0.00 0.00 0.00 0.00 0.00
0.02 0.02 0.02 0.02 0.02 0.02 0.02 0.02 0.02 0.01 0.01 0.01 0.00 0.00 0.00 0.00 0.00 0.00 0.00 0.00 0.00 0.00 0.00 0.00 0.00 0.00 0.00 0.00 0.00 0.00 0.00 0.00 0.00 0.00 0.00 0.00 0.00 0.00 0.00 0.00 0.00 0.00 0.00
MSLP
1015.47 1015.26 1014.89 1014.42 1013.92 1013.45 1013.10 1012.89 1012.85 1012.95 1013.14 1013.36 1013.55 1013.68 1013.70 1013.63 1013.50 1013.36 1013.24 1013.19 1013.22 1013.35 1013.55 1013.80 1014.07 1014.34 1014.60 1014.86 1015.14 1015.47 1015.87 1016.35 1016.91 1017.52 1018.14 1018.73 1019.25 1019.67 1019.97 1020.16 1020.27 1020.33 1020.38
1016.08 1015.92 1015.61 1015.16 1014.65 1014.14 1013.70 1013.38 1013.21 1013.18 1013.25 1013.38 1013.50 1013.58 1013.60 1013.54 1013.44 1013.33 1013.25 1013.24 1013.30 1013.44 1013.63 1013.85 1014.07 1014.28 1014.46 1014.64 1014.86 1015.13 1015.50 1015.99 1016.58 1017.26 1017.98 1018.69 1019.33 1019.87 1020.28 1020.56 1020.75 1020.87 1020.96
1016.60 1016.55 1016.32 1015.95 1015.46 1014.93 1014.43 1014.02 1013.72 1013.56 1013.51 1013.54 1013.59 1013.63 1013.64 1013.60 1013.54 1013.48 1013.45 1013.47 1013.56 1013.71 1013.88 1014.06 1014.22 1014.34 1014.44 1014.53 1014.65 1014.85 1015.18 1015.64 1016.24 1016.96 1017.74 1018.53 1019.27 1019.92 1020.44 1020.83 1021.11 1021.31 1021.47
1017.06 1017.14 1017.04 1016.76 1016.34 1015.83 1015.29 1014.80 1014.40 1014.12 1013.96 1013.88 1013.86 1013.86 1013.85 1013.84 1013.81 1013.80 1013.82 1013.88 1013.99 1014.13 1014.28 1014.41 1014.50 1014.55 1014.56 1014.56 1014.59 1014.72 1014.98 1015.39 1015.97 1016.68 1017.49 1018.32 1019.13 1019.85 1020.47 1020.96 1021.33 1021.62 1021.86
1017.46 1017.68 1017.72 1017.57 1017.24 1016.77 1016.24 1015.70 1015.22 1014.84 1014.56 1014.40 1014.31 1014.27 1014.25 1014.24 1014.25 1014.27 1014.32 1014.41 1014.52 1014.65 1014.77 1014.86 1014.89 1014.87 1014.81 1014.74 1014.70 1014.76 1014.95 1015.31 1015.84 1016.51 1017.29 1018.12 1018.94 1019.70 1020.37 1020.93 1021.39 1021.77 1022.09
1017.81 1018.17 1018.36 1018.34 1018.11 1017.71 1017.20 1016.65 1016.12 1015.67 1015.32 1015.07 1014.92 1014.84 1014.81 1014.80 1014.82 1014.86 1014.93 1015.01 1015.12 1015.22 1015.31 1015.36 1015.35 1015.28 1015.18 1015.07 1014.99 1015.00 1015.13 1015.43 1015.89 1016.49 1017.21 1017.98 1018.77 1019.51 1020.19 1020.79 1021.30 1021.75 1022.14
1018.10 1018.58 1018.90 1019.01 1018.90 1018.59 1018.12 1017.59 1017.04 1016.56 1016.16 1015.87 1015.68 1015.56 1015.51 1015.49 1015.51 1015.54 1015.60 1015.66 1015.74 1015.82 1015.87 1015.88 1015.85 1015.76 1015.64 1015.52 1015.43 1015.41 1015.51 1015.75 1016.13 1016.64 1017.26 1017.94 1018.64 1019.33 1019.98 1020.57 1021.11 1021.60 1022.04
1018.35 1018.92 1019.35 1019.58 1019.57 1019.35 1018.96 1018.47 1017.95 1017.47 1017.06 1016.75 1016.53 1016.40 1016.32 1016.29 1016.28 1016.29 1016.32 1016.35 1016.38 1016.42 1016.44 1016.42 1016.38 1016.30 1016.19 1016.08 1016.00 1015.99 1016.06 1016.25 1016.56 1016.97 1017.47 1018.03 1018.62 1019.21 1019.79 1020.35 1020.88 1021.38 1021.86
1018.56 1019.21 1019.72 1020.03 1020.12 1019.99 1019.68 1019.26 1018.80 1018.36 1017.98 1017.68 1017.46 1017.32 1017.23 1017.17 1017.13 1017.11 1017.08 1017.07 1017.05 1017.04 1017.02 1016.99 1016.95 1016.88 1016.80 1016.73 1016.68 1016.68 1016.75 1016.90 1017.14 1017.45 1017.83 1018.27 1018.73 1019.21 1019.69 1020.19 1020.69 1021.19 1021.68
1018.78 1019.47 1020.03 1020.40 1020.56 1020.51 1020.29 1019.96 1019.58 1019.21 1018.88 1018.62 1018.43 1018.29 1018.19 1018.11 1018.04 1017.97 1017.90 1017.83 1017.77 1017.71 1017.66 1017.61 1017.57 1017.52 1017.48 1017.45 1017.44 1017.47 1017.54 1017.66 1017.84 1018.07 1018.34 1018.65 1018.99 1019.36 1019.75 1020.17 1020.62 1021.10 1021.60
1019.05 1019.75 1020.33 1020.73 1020.94 1020.95 1020.81 1020.57 1020.28 1020.00 1019.74 1019.53 1019.37 1019.25 1019.16 1019.06 1018.97 1018.86 1018.75 1018.64 1018.53 1018.44 1018.36 1018.31 1018.26 1018.23 1018.22 1018.22 1018.25 1018.30 1018.38 1018.49 1018.63 1018.79 1018.98 1019.19 1019.43 1019.69 1020.00 1020.35 1020.75 1021.19 1021.67
1019.38 1020.07 1020.64 1021.04 1021.27 1021.33 1021.26 1021.10 1020.90 1020.69 1020.51 1020.36 1020.25 1020.15 1020.06 1019.96 1019.85 1019.73 1019.59 1019.46 1019.33 1019.22 1019.13 1019.06 1019.02 1019.00 1019.01 1019.04 1019.08 1019.15 1019.24 1019.34 1019.45 1019.57 1019.71 1019.85 1020.01 1020.20 1020.44 1020.73 1021.07 1021.48 1021.92
1019.76 1020.43 1020.97 1021.35 1021.57 1021.66 1021.63 1021.54 1021.41 1021.28 1021.17 1021.08 1021.00 1020.92 1020.84 1020.75 1020.64 1020.52 1020.38 1020.25 1020.12 1020.01 1019.92 1019.86 1019.83 1019.81 1019.82 1019.86 1019.91 1019.98 1020.07 1020.17 1020.27 1020.37 1020.48 1020.59 1020.71 1020.85 1021.04 1021.28 1021.58 1021.93 1022.33
1020.16 1020.80 1021.28 1021.63 1021.83 1021.92 1021.93 1021.88 1021.82 1021.74 1021.68 1021.63 1021.57 1021.52 1021.45 1021.37 1021.28 1021.17 1021.06 1020.96 1020.86 1020.78 1020.71 1020.67 1020.64 1020.62 1020.63 1020.65 1020.70 1020.76 1020.85 1020.94 1021.04 1021.15 1021.25 1021.35 1021.46 1021.58 1021.74 1021.94 1022.19 1022.49 1022.84
1020.52 1021.10 1021.53 1021.83 1022.01 1022.10 1022.13 1022.12 1022.09 1022.06 1022.03 1022.00 1021.96 1021.91 1021.86 1021.80 1021.73 1021.66 1021.60 1021.55 1021.51 1021.48 1021.45 1021.43 1021.41 1021.40 1021.39 1021.40 1021.42 1021.47 1021.54 1021.63 1021.74 1021.85 1021.97 1022.08 1022.20 1022.32 1022.46 1022.63 1022.83 1023.08 1023.37
1020.76 1021.29 1021.67 1021.93 1022.09 1022.18 1022.22 1022.24 1022.24 1022.24 1022.23 1022.20 1022.17 1022.12 1022.08 1022.03 1022.00 1021.98 1021.98 1022.01 1022.04 1022.08 1022.11 1022.12 1022.12 1022.11 1022.08 1022.06 1022.06 1022.08 1022.14 1022.23 1022.34 1022.47 1022.61 1022.75 1022.88 1023.00 1023.13 1023.27 1023.43 1023.61 1023.83
1020.83 1021.31 1021.65 1021.89 1022.04 1022.15 1022.22 1022.27 1022.30 1022.32 1022.31 1022.29 1022.25 1022.20 1022.16 1022.13 1022.13 1022.17 1022.25 1022.35 1022.47 1022.58 1022.67 1022.73 1022.75 1022.73 1022.70 1022.65 1022.62 1022.61 1022.65 1022.73 1022.85 1023.00 1023.16 1023.32 1023.47 1023.60 1023.71 1023.81 1023.92 1024.04 1024.18
1020.71 1021.16 1021.48 1021.72 1021.90 1022.03 1022.15 1022.24 1022.31 1022.34 1022.35 1022.32 1022.28 1022.22 1022.18 1022.17 1022.21 1022.30 1022.44 1022.62 1022.82 1023.00 1023.16 1023.26 1023.30 1023.28 1023.23 1023.16 1023.10 1023.07 1023.09 1023.16 1023.28 1023.44 1023.62 1023.80 1023.95 1024.08 1024.17 1024.24 1024.29 1024.34 1024.40
1020.45 1020.88 1021.21 1021.48 1021.69 1021.89 1022.06 1022.21 1022.32 1022.39 1022.41 1022.39 1022.34 1022.28 1022.24 1022.24 1022.31 1022.45 1022.64 1022.89 1023.15 1023.39 1023.59 1023.72 1023.78 1023.77 1023.71 1023.62 1023.54 1023.48 1023.48 1023.55 1023.67 1023.83 1024.01 1024.19 1024.35 1024.46 1024.53 1024.56 1024.56 1024.54 1024.52
1020.13 1020.56 1020.91 1021.22 1021.50 1021.77 1022.01 1022.22 1022.39 1022.49 1022.54 1022.52 1022.48 1022.42 1022.39 1022.41 1022.50 1022.66 1022.90 1023.18 1023.48 1023.77 1024.00 1024.16 1024.23 1024.22 1024.15 1024.05 1023.95 1023.88 1023.87 1023.92 1024.03 1024.19 1024.37 1024.54 1024.68 1024.78 1024.82 1024.80 1024.75 1024.67 1024.58
1019.83 1020.27 1020.66 1021.03 1021.38 1021.72 1022.03 1022.31 1022.53 1022.68 1022.75 1022.76 1022.72 1022.68 1022.65 1022.68 1022.79 1022.97 1023.23 1023.53 1023.85 1024.15 1024.40 1024.56 1024.64 1024.63 1024.56 1024.45 1024.34 1024.27 1024.24 1024.29 1024.39 1024.53 1024.70 1024.86 1024.98 1025.05 1025.06 1025.01 1024.91 1024.78 1024.64
1019.63 1020.10 1020.53 1020.95 1021.36 1021.76 1022.14 1022.47 1022.73 1022.92 1023.02 1023.06 1023.04 1023.02 1023.01 1023.05 1023.16 1023.35 1023.61 1023.92 1024.24 1024.53 1024.77 1024.93 1025.01 1025.00 1024.93 1024.82 1024.72 1024.64 1024.61 1024.65 1024.74 1024.87 1025.01 1025.15 1025.24 1025.29 1025.27 1025.19 1025.06 1024.90 1024.73
1019.59 1020.07 1020.53 1020.99 1021.44 1021.89 1022.30 1022.67 1022.96 1023.18 1023.31 1023.37 1023.39 1023.38 1023.40 1023.46 1023.58 1023.77 1024.02 1024.32 1024.62 1024.89 1025.11 1025.26 1025.32 1025.31 1025.24 1025.15 1025.05 1024.98 1024.96 1024.99 1025.07 1025.18 1025.30 1025.40 1025.48 1025.50 1025.46 1025.36 1025.23 1025.06 1024.88
1019.70 1020.19 1020.66 1021.13 1021.60 1022.05 1022.48 1022.85 1023.16 1023.39 1023.55 1023.64 1023.68 1023.71 1023.76 1023.84 1023.98 1024.17 1024.41 1024.68 1024.95 1025.20 1025.39 1025.52 1025.57 1025.56 1025.50 1025.41 1025.33 1025.28 1025.26 1025.28 1025.35 1025.44 1025.53 1025.61 1025.66 1025.66 1025.61 1025.52 1025.39 1025.23 1025.06
1019.91 1020.39 1020.86 1021.32 1021.77 1022.21 1022.62 1022.98 1023.28 1023.51 1023.68 1023.80 1023.88 1023.96 1024.04 1024.15 1024.30 1024.50 1024.73 1024.98 1025.22 1025.43 1025.59 1025.69 1025.73 1025.72 1025.67 1025.61 1025.54 1025.50 1025.49 1025.52 1025.57 1025.64 1025.71 1025.76 1025.79 1025.78 1025.73 1025.64 1025.53 1025.40 1025.27
1020.16 1020.62 1021.06 1021.49 1021.91 1022.30 1022.67 1023.00 1023.28 1023.51 1023.69 1023.84 1023.96 1024.08 1024.21 1024.36 1024.54 1024.75 1024.97 1025.20 1025.40 1025.58 1025.71 1025.79 1025.82 1025.81 1025.77 1025.72 1025.68 1025.66 1025.65 1025.68 1025.72 1025.77 1025.82 1025.85 1025.86 1025.84 1025.80 1025.73 1025.65 1025.56 1025.46
Thickness
5693 5695 5696 5697 5697 5698 5699 5699 5700 5701 5703 5703 5701 5697 5694 5694 5694 5693 5695 5698 5699 5700 5699 5700 5701 5701 5699 5697 5697 5695 5691 5688 5687 5683 5675 5672 5673 5674 5674 5674 5673 5672 5671
5683 5684 5685 5686 5686 5687 5687 5688 5690 5692 5695 5696 5696 5694 5690 5687 5686 5686 5688 5690 5692 5694 5694 5694 5693 5694 5693 5692 5690 5690 5686 5682 5682 5679 5671 5663 5660 5661 5662 5662 5663 5662 5661
5673 5673 5673 5672 5673 5674 5676 5679 5680 5682 5686 5688 5689 5687 5684 5680 5678 5678 5679 5680 5683 5685 5687 5688 5687 5687 5687 5685 5685 5685 5683 5678 5676 5677 5673 5663 5656 5651 5649 5651 5651 5651 5651
5663 5662 5662 5661 5661 5662 5664 5667 5669 5672 5675 5678 5680 5679 5675 5671 5668 5668 5670 5671 5674 5675 5678 5679 5679 5679 5679 5678 5678 5678 5678 5675 5670 5669 5669 5668 5663 5652 5642 5639 5639 5640 5639
5651 5651 5651 5650 5650 5651 5653 5655 5658 5660 5663 5667 5669 5668 5665 5662 5661 5660 5661 5662 5664 5666 5668 5670 5670 5669 5669 5670 5670 5670 5670 5668 5665 5662 5660 5658 5655 5652 5645 5634 5630 5629 5628
5641 5640 5639 5639 5640 5641 5641 5643 5645 5648 5651 5654 5656 5657 5655 5654 5652 5651 5651 5651 5653 5655 5656 5658 5659 5659 5659 5659 5660 5660 5660 5658 5656 5654 5652 5650 5648 5643 5640 5632 5625 5620 5617
5631 5630 5628 5628 5629 5629 5629 5630 5633 5634 5637 5640 5642 5643 5643 5643 5642 5641 5641 5641 5641 5642 5643 5646 5647 5647 5647 5647 5648 5648 5646 5645 5644 5643 5641 5640 5639 5637 5634 5627 5618 5612 5607
5623 5620 5617 5617 5617 5617 5617 5618 5620 5622 5624 5626 5628 5630 5631 5630 5630 5630 5630 5630 5630 5630 5631 5633 5634 5634 5635 5635 5635 5634 5633 5632 5631 5630 5629 5628 5627 5627 5624 5619 5612 5604 5596
5614 5611 5608 5607 5606 5605 5605 5606 5608 5610 5612 5614 5616 5616 5617 5618 5618 5618 5618 5618 5618 5618 5619 5620 5621 5621 5622 5622 5622 5621 5619 5618 5618 5617 5616 5615 5614 5614 5612 5610 5607 5600 5590
5605 5601 5599 5597 5596 5595 5595 5596 5596 5598 5599 5601 5604 5604 5604 5605 5605 5606 5606 5606 5606 5607 5607 5608 5609 5609 5609 5609 5609 5607 5607 5606 5605 5604 5604 5602 5601 5601 5599 5597 5595 5592 5585
5598 5594 5590 5587 5586 5585 5585 5585 5585 5586 5587 5589 5590 5591 5592 5592 5593 5593 5593 5593 5594 5594 5595 5595 5595 5596 5595 5595 5595 5594 5594 5593 5591 5591 5590 5589 5588 5587 5585 5584 5582 5579 5575
5591 5586 5582 5579 5577 5575 5574 5574 5574 5574 5575 5576 5577 5578 5579 5580 5580 5580 5581 5581 5581 5581 5582 5582 5582 5582 5582 5583 5582 5582 5581 5579 5578 5577 5577 5575 5575 5573 5571 5570 5567 5564 5562
5583 5579 5575 5571 5568 5566 5565 5563 5563 5563 5563 5564 5565 5566 5566 5567 5567 5568 5568 5569 5569 5569 5569 5569 5568 5569 5569 5569 5570 5569 5568 5567 5565 5565 5563 5562 5561 5558 5557 5555 5553 5551 5549
5578 5573 5567 5563 5560 5558 5556 5554 5553 5553 5553 5552 5552 5553 5554 5555 5555 5556 5556 5557 5557 5557 5557 5556 5556 5556 5557 5557 5557 5557 5556 5555 5553 5552 5551 5550 5548 5546 5544 5543 5540 5538 5536
5572 5567 5561 5556 5553 5550 5547 5545 5544 5544 5543 5543 5542 5542 5543 5544 5545 5545 5545 5545 5545 5545 5545 5544 5544 5544 5544 5544 5544 5545 5544 5542 5541 5540 5539 5538 5537 5536 5534 5532 5529 5527 5523
5568 5561 5556 5551 5547 5543 5540 5538 5536 5535 5535 5534 5534 5534 5534 5534 5534 5534 5534 5534 5533 5533 5533 5532 5532 5532 5532 5533 5534 5534 5532 5531 5530 5528 5527 5526 5525 5525 5525 5523 5522 5519 5515
5563 5556 5550 5545 5540 5537 5534 5531 5530 5529 5528 5527 5527 5527 5527 5526 5526 5526 5525 5524 5523 5522 5522 5521 5521 5520 5521 5523 5524 5524 5522 5521 5519 5518 5517 5517 5515 5515 5514 5514 5513 5511 5509
5557 5549 5543 5538 5534 5531 5528 5526 5525 5524 5523 5522 5521 5521 5520 5519 5518 5517 5516 5515 5514 5514 5513 5512 5511 5511 5512 5513 5514 5514 5513 5511 5509 5508 5507 5505 5504 5505 5504 5504 5502 5501 5499
5551 5543 5538 5533 5529 5525 5523 5521 5520 5519 5518 5516 5516 5515 5514 5512 5511 5509 5508 5507 5507 5506 5505 5504 5503 5503 5503 5504 5505 5505 5503 5501 5499 5499 5498 5497 5495 5495 5495 5494 5491 5491 5491
5544 5538 5532 5528 5523 5520 5518 5516 5514 5513 5512 5511 5510 5509 5508 5507 5505 5503 5502 5501 5500 5499 5498 5497 5496 5495 5495 5496 5497 5497 5495 5492 5490 5489 5489 5488 5488 5487 5487 5485 5483 5482 5482
5538 5533 5528 5523 5519 5516 5514 5511 5509 5507 5507 5507 5505 5504 5503 5501 5500 5498 5497 5496 5495 5493 5491 5490 5489 5488 5488 5488 5489 5489 5487 5484 5483 5482 5481 5482 5482 5482 5481 5480 5478 5477 5477
5533 5529 5523 5519 5515 5513 5510 5507 5504 5504 5504 5502 5501 5499 5498 5498 5496 5494 5492 5491 5489 5487 5485 5483 5482 5481 5481 5482 5482 5482 5481 5479 5477 5476 5476 5477 5478 5478 5478 5477 5476 5476 5475
5530 5525 5520 5515 5512 5509 5507 5503 5502 5501 5499 5497 5496 5494 5494 5492 5491 5489 5488 5486 5484 5482 5480 5478 5476 5475 5475 5475 5476 5476 5475 5474 5472 5472 5473 5474 5475 5475 5474 5474 5473 5472 5470
5526 5521 5517 5512 5508 5506 5504 5502 5500 5498 5496 5494 5492 5491 5489 5487 5485 5484 5484 5482 5480 5479 5477 5475 5473 5471 5470 5470 5470 5470 5469 5469 5469 5469 5470 5471 5471 5471 5470 5470 5469 5468 5467
5524 5519 5515 5510 5507 5505 5503 5501 5499 5497 5494 5492 5490 5488 5486 5483 5481 5479 5478 5478 5477 5478 5476 5474 5472 5469 5468 5467 5468 5466 5465 5464 5464 5465 5465 5465 5464 5463 5463 5463 5463 5463 5463
5523 5518 5513 5510 5507 5505 5503 5501 5499 5496 5493 5491 5489 5487 5485 5482 5480 5477 5475 5476 5476 5476 5476 5475 5473 5471 5469 5468 5466 5465 5465 5464 5464 5462 5459 5458 5458 5458 5457 5457 5458 5458 5458